Hourly Data Report for June 10, 2018

TORONTO CITY
ONTARIO
Current Station Operator: ECCC - MSC

43°40'00.000" N
79°24'00.000" W
112.50 m
6158355
71508
XTO

Download Data

Hourly Data (June 2018)
Hourly Data Report for June 10, 2018
TIME
LST
Temp Definition
°C
Dew Point Definition
°C
Rel Hum Definition
%
Precip. Amount Definition
mm

Wind Dir Definition
10's deg

Wind Spd Definition
km/h
Visibility Definition
km
Stn Press Definition
kPa
Hmdx Definition


Wind Chill Definition


Weather Definition


00:00 17.2 10.1 63 0.0 LegendMM LegendMM   100.51     LegendNANA
01:00 17.3 10.1 63 0.0 LegendMM LegendMM   100.48     LegendNANA
02:00 18.1 8.5 54 0.0 LegendMM LegendMM   100.46     LegendNANA
03:00 17.8 9.2 57 0.0 LegendMM LegendMM   100.47     LegendNANA
04:00 17.4 8.6 56 0.0 LegendMM LegendMM   100.46     LegendNANA
05:00 17.3 8.1 55 0.0 LegendMM LegendMM   100.49     LegendNANA
06:00 17.2 6.5 49 0.0 LegendMM LegendMM   100.49     LegendNANA
07:00 16.7 6.1 50 0.0 LegendMM LegendMM   100.52     LegendNANA
08:00 18.0 3.9 39 0.0 LegendMM LegendMM   100.51     LegendNANA
09:00 19.1 1.3 30 0.0 LegendMM LegendMM   100.51     LegendNANA
10:00 20.2 1.3 28 0.0 LegendMM LegendMM   100.52     LegendNANA
11:00 19.9 1.0 28 0.0 LegendMM LegendMM   100.51     LegendNANA
12:00 20.3 1.1 28 0.0 LegendMM LegendMM   100.49     LegendNANA
13:00 20.4 2.0 30 0.0 LegendMM LegendMM   100.48     LegendNANA
14:00 20.2 1.3 28 0.0 LegendMM LegendMM   100.39     LegendNANA
15:00 19.7 2.3 31 0.0 LegendMM LegendMM   100.36     LegendNANA
16:00 19.4 0.9 29 0.0 LegendMM LegendMM   100.29     LegendNANA
17:00 19.4 1.4 30 0.0 LegendMM LegendMM   100.26     LegendNANA
18:00 18.8 1.6 32 0.0 LegendMM LegendMM   100.22     LegendNANA
19:00 18.1 1.7 33 0.0 LegendMM LegendMM   100.27     LegendNANA
20:00 17.4 2.7 37 0.0 LegendMM LegendMM   100.30     LegendNANA
21:00 17.1 3.3 40 0.0 LegendMM LegendMM   100.34     LegendNANA
22:00 16.8 3.7 42 0.0 LegendMM LegendMM   100.34     LegendNANA
23:00 16.1 4.3 45 0.0 LegendMM LegendMM   100.31     LegendNANA

Notes on Data Quality.

Legend

  • E = Estimated
  • M = Missing
  • NA = Not Available*
  • [empty] = Indicates an unobserved value
Date modified: